TimeMDT,TemperatureF,Dew PointF,Humidity,Sea Level PressureIn,VisibilityMPH,Wind Direction,Wind SpeedMPH,Gust SpeedMPH,PrecipitationIn,Events,Conditions,WindDirDegrees,DateUTC
12:53 AM,18.0,14.0,84,30.37,10.0,NW,8.1,-,N/A,,Clear,310,2013-03-12 06:53:00
1:53 AM,17.1,12.9,84,30.38,10.0,WNW,6.9,-,N/A,,Clear,300,2013-03-12 07:53:00
2:53 AM,15.1,12.0,88,30.41,10.0,WSW,3.5,-,N/A,,Clear,250,2013-03-12 08:53:00
3:53 AM,16.0,12.0,84,30.41,10.0,NW,4.6,-,N/A,,Clear,320,2013-03-12 09:53:00
4:53 AM,15.1,10.9,84,30.43,10.0,SSW,3.5,-,N/A,,Clear,200,2013-03-12 10:53:00
5:53 AM,12.9,10.0,88,30.44,10.0,WSW,4.6,-,N/A,,Clear,250,2013-03-12 11:53:00
6:53 AM,12.9,10.0,88,30.44,10.0,NW,3.5,-,N/A,,Clear,310,2013-03-12 12:53:00
7:53 AM,12.9,9.0,84,30.44,10.0,West,3.5,-,N/A,,Clear,270,2013-03-12 13:53:00
8:53 AM,19.0,12.9,77,30.43,10.0,Calm,Calm,-,N/A,,Clear,0,2013-03-12 14:53:00
9:53 AM,21.9,15.1,75,30.42,10.0,SE,3.5,-,N/A,,Clear,130,2013-03-12 15:53:00
10:53 AM,25.0,15.1,66,30.40,10.0,SE,6.9,-,N/A,,Clear,140,2013-03-12 16:53:00
11:53 AM,27.0,17.1,66,30.38,10.0,South,9.2,-,N/A,,Clear,170,2013-03-12 17:53:00
12:53 PM,28.9,15.1,56,30.36,10.0,SSE,11.5,-,N/A,,Clear,160,2013-03-12 18:53:00
1:53 PM,30.9,16.0,54,30.33,10.0,SSE,13.8,-,N/A,,Clear,160,2013-03-12 19:53:00
2:53 PM,34.0,19.0,54,30.29,10.0,SSE,13.8,-,N/A,,Clear,150,2013-03-12 20:53:00
3:53 PM,35.1,19.0,52,30.26,10.0,SE,13.8,-,N/A,,Clear,140,2013-03-12 21:53:00
4:53 PM,35.1,19.0,52,30.23,10.0,SE,15.0,-,N/A,,Clear,130,2013-03-12 22:53:00
5:53 PM,35.1,19.9,54,30.20,10.0,SE,16.1,-,N/A,,Clear,130,2013-03-12 23:53:00
6:53 PM,32.0,24.1,73,30.18,10.0,ESE,17.3,-,N/A,,Clear,110,2013-03-13 00:53:00
7:53 PM,30.9,23.0,72,30.17,10.0,ESE,20.7,-,N/A,,Overcast,110,2013-03-13 01:53:00
8:53 PM,30.0,23.0,75,30.14,10.0,ESE,19.6,-,N/A,,Overcast,110,2013-03-13 02:53:00
9:53 PM,30.0,21.9,72,30.13,10.0,ESE,19.6,-,N/A,,Overcast,110,2013-03-13 03:53:00
10:53 PM,30.0,23.0,75,30.11,10.0,ESE,18.4,-,N/A,,Overcast,120,2013-03-13 04:53:00
11:53 PM,30.0,23.0,75,30.09,10.0,ESE,18.4,-,0.00,,Overcast,120,2013-03-13 05:53:00